EHI
0 0 0 0 0 0 0 0 0 0 0 0 0 0 0 0 0 0 0 0 0 0 0 0 0 0 0 0 0 0 0 0 0 0 0 0 0 0 0 0 0 0 0
0 0 0 0 0 0 0 0 0 0 0 0 0 0 0 0 0 0 0 0 0 0 0 0 0 0 0 0 0 0 0 0 0 0 0 0 0 0 0 0 0 0 0
0 0 0 0 0 0 0 0 0 0 0 0 0 0 0 0 0 0 0 0 0 0 0 0 0 0 0 0 0 0 0 0 0 0 0 0 0 0 0 0 0 0 0
0 0 0 0 0 0 0 0 0 0 0 0 0 0 0 0 0 0 0 0 0 0 0 0 0 0 0 0 0 0 0 0 0 0 0 0 0 0 0 0 0 0 0
0 0 0 0 0 0 0 0 0 0 0 0 0 0 0 0 0 0 0 0 0 0 0 0 0 0 0 0 0 0 0 0 0 0 0 0 0 0 0 0 0 0 0
0 0 0 0 0 0 0 0 0 0 0 0 0 0 0 0 0 0 0 0 0 0 0 0 0 0 0 0 0 0 0 0 0 0 0 0 0 0 0 0 0 0 0
0 0 0 0 0 0 0 0 0 0 0 0 0 0 0 0 0 0 0 0 0 0 0 0 0 0 0 0 0 0 0 0 0 0 0 0 0 0 0 0 0 0 0
0 0 0 0 0 0 0 0 0 0 0 0 0 0 0 0 0 0 0 0 0 0 0 0 0 0 0 0 0 0 0 0 0 0 0 0 0 0 0 0 0 0 0
0 0 0 0 0 0 0 0 0 0 0 0 0 0 0 0 0 0 0 0 0 0 0 0 0 0 0 0 0 0 0 0 0 0 0 0 0 0 0 0 0 0 0
0 0 0 0 0 0 0 0 0 0 0 0 0 0 0 0 0 0 0 0 0 0 0 0 0 0 0 0 0 0 0 0 0 0 0 0 0 0 0 0 0 0 0
0 0 0 0 0 0 0 0 0 0 0 0 0 0 0 0 0 0 0 0 0 0 0 0 0 0 0 0 0 0 0 0 0 0 0 0 0 0 0 0 0 0 0
0 0 0 0 0 0 0 0 0 0 0 0 0 0 0 0 0 0 0 0 0 0 0 0 0 0 0 0 0 0 0 0 0 0 0 0 0 0 0 0 0 0 0
0 0 0 0 0 0 0 0 0 0 0 0 0 0 0 0 0 0 0 0 0 0 0 0 0 0 0 0 0 0 0 0 0 0 0 0 0 0 0 0 0 0 0
0 0 0 0 0 0 0 0 0 0 0 0 0 0 0 0 0 0 0 0 0 0 0 0 0 0 0 0 0 0 0 0 0 0 0 0 0 0 0 0 0 0 0
0 0 0 0 0 0 0 0 0 0 0 0 0 0 0 0 0 0 0 0 0 0 0 0 0 0 0 0 0 0 0 0 0 0 0 0 0 0 0 0 0 0 0
0 0 0 0 0 0 0 0 0 0 0 0 0 0 0 0 0 0 0 0 0 0 0 0 0 0 0 0 0 0 0 0 0 0 0 0 0 0 0 0 0 0 0
0 0 0 0 0 0 0 0 0 0 0 0 0 0 0 0 0 0 0 0 0 0 0 0 0 0 0 0 0 0 0 0 0 0 0 0 0 0 0 0 0 0 0
0 0 0 0 0 0 0 0 0 0 0 0 0 0 0 0 0 0 0 0 0 0 0 0 0 0 0 0 0 0 0 0 0 0 0 0 0 0 0 0 0 0 0
0 0 0 0 0 0 0 0 0 0 0 0 0 0 0 0 0 0 0 0 0 0 0 0 0 0 0 0 0 0 0 0 0 0 0 0 0 0 0 0 0 0 0
0 0 0 0 0 0 0 0 0 0 0 0 0 0 0 0 0 0 0 0 0 0 0 0 0 0 0 0 0 0 0 0 0 0 0 0 0 0 0 0 0 0 0
0 0 0 0 0 0 0 0 0 0 0 0 0 0 0 0 0 0 0 0 0 0 0 0 0 0 0 0 0 0 0 0 0 0 0 0 0 0 0 0 0 0 0
0 0 0 0 0 0 0 0 0 0 0 0 0 0 0 0 0 0 0 0 0 0 0 0 0 0 0 0 0 0 0 0 0 0 0 0 0 0 0 0 0 0 0
0 0 0 0 0 0 0 0 0 0 0 0 0 0 0 0 0 0 0 0 0 0 0 0 0 0 0 0 0 0 0 0 0 0 0 0 0 0 0 0 0 0 0
0 0 0 0 0 0 0 0 0 0 0 0 0 0 0 0 0 0 0 0 0 0 0 0 0 0 0 0 0 0 0 0 0 0 0 0 0 0 0 0 0 0 0
0 0 0 0 0 0 0 0 0 0 0 0 0 0 0 0 0 0 0 0 0 0 0 0 0 0 0 0 0 0 0 0 0 0 0 0 0 0 0 0 0 0 0
0 0 0 0 0 0 0 0 0 0 0 0 0 0 0 0 0 0 0 0 0 0 0 0 0 0 0 0 0 0 0 0 0 0 0 0 0 0 0 0 0 0 0
Wind_Speed
6 7 7 8 8 8 8 11 11 11 11 12 13 13 13 14 14 15 17 16 18 18 17 17 19 15 13 11 10 10 12 11 16 9 6 7 9 9 9 8 8 10 10
7 7 7 8 8 8 9 10 10 11 11 11 11 12 12 13 13 15 17 17 18 19 18 18 19 14 17 13 11 13 13 12 14 15 7 7 10 9 8 8 9 10 8
7 7 8 8 8 9 10 10 10 10 10 10 10 12 12 13 13 14 16 16 17 18 18 18 18 16 17 13 14 14 12 12 12 13 11 8 8 7 7 8 9 8 10
7 7 8 9 10 10 10 10 10 10 10 10 11 11 12 12 12 12 13 15 16 16 16 17 17 17 17 16 15 15 13 12 11 11 11 8 8 6 7 8 9 8 9
8 9 10 10 10 10 10 10 10 10 10 10 11 11 11 10 10 11 11 13 14 15 14 15 15 19 23 19 14 11 12 12 11 11 12 10 9 7 8 7 10 8 8
9 10 11 11 11 11 11 11 10 10 10 10 11 12 12 10 18 23 17 11 11 13 13 12 14 19 24 30 30 27 21 16 14 13 12 12 11 11 9 8 8 8 9
10 11 11 11 12 12 12 11 11 11 10 11 11 11 12 14 22 24 24 13 10 10 11 11 10 12 19 14 21 29 27 30 27 16 15 14 12 11 10 11 11 10 11
11 11 11 12 12 12 11 11 12 10 10 10 11 11 11 13 21 23 23 14 9 9 10 11 12 11 12 13 12 13 13 15 18 17 14 14 12 10 11 13 12 11 9
12 12 12 12 14 13 12 12 12 11 10 10 10 11 12 13 20 22 22 8 7 9 9 10 11 11 19 23 15 13 13 12 19 24 22 20 23 23 17 10 10 9 10
13 13 13 12 13 14 14 13 11 10 11 11 11 10 11 11 18 21 20 6 7 7 6 8 16 15 19 22 14 12 13 12 10 11 15 17 15 17 23 14 9 9 7
14 13 13 13 13 13 13 11 11 11 11 11 12 10 10 12 16 19 20 8 6 6 6 6 8 18 20 22 19 12 16 12 9 10 9 8 8 8 9 9 9 9 9
14 14 14 13 12 12 12 12 11 11 12 11 11 10 8 9 12 15 18 16 13 7 6 6 8 17 19 20 16 16 21 18 8 8 9 9 9 8 7 8 9 10 10
14 14 13 13 12 11 12 13 12 10 10 10 9 9 8 6 8 16 18 18 17 9 6 11 13 16 16 13 16 18 15 9 8 8 9 8 8 7 6 5 6 7 7
15 14 13 13 13 11 10 9 10 9 10 10 10 10 9 7 6 6 7 8 11 8 6 9 12 13 11 10 10 9 6 6 7 7 7 6 5 5 6 6 6 5 6
14 14 13 12 12 12 10 9 11 10 12 13 10 8 9 9 10 15 10 6 5 6 5 3 3 4 5 5 5 5 5 5 6 5 5 5 6 6 6 5 5 5 6
14 13 11 11 11 10 11 11 13 15 21 21 19 16 11 15 20 18 16 15 14 13 8 4 4 5 6 6 6 6 5 6 6 5 5 6 6 6 6 5 5 6 7
14 14 12 11 10 10 10 11 12 13 16 17 18 18 17 18 18 16 15 14 13 12 6 4 5 5 5 5 5 5 6 6 6 6 6 6 6 6 6 6 7 7 7
14 15 14 11 10 10 10 10 10 11 11 9 11 15 16 16 16 15 14 11 6 5 3 4 4 5 5 5 5 5 5 5 5 6 6 6 6 6 6 7 7 8 8
13 11 11 10 10 10 9 9 9 10 10 10 8 9 13 13 13 13 11 5 4 4 4 4 4 4 5 5 5 5 6 6 6 5 6 6 6 6 7 7 7 12 10
11 18 17 11 10 9 9 9 9 9 9 8 8 8 7 7 5 6 5 4 4 4 4 4 4 4 5 5 5 5 5 5 6 6 6 6 6 6 8 8 8 8 8
10 12 18 13 9 9 9 9 9 9 8 8 7 9 13 7 6 5 5 4 4 4 4 3 4 4 4 4 4 5 6 6 6 6 6 6 6 6 6 7 8 8 8
10 10 9 9 9 9 9 8 8 9 9 9 8 8 13 7 5 5 5 4 3 3 3 3 3 4 4 4 5 5 6 6 6 6 6 6 6 6 6 7 7 7 8
10 10 9 9 9 12 11 8 8 8 8 8 8 7 6 5 5 5 4 4 3 3 3 3 3 3 3 3 4 5 6 6 6 6 6 6 6 7 7 8 9 9 9
9 9 9 9 9 8 9 9 8 8 8 8 7 6 6 5 5 5 4 3 3 3 3 3 3 4 5 4 4 4 5 5 5 6 8 8 7 7 7 8 9 10 10
8 9 9 9 9 9 9 9 8 8 7 7 6 6 5 5 5 4 3 3 3 3 3 3 3 4 5 6 5 5 8 11 10 7 6 7 8 9 9 9 9 9 10
8 9 9 8 8 8 8 8 8 8 7 6 6 5 5 5 4 4 3 3 3 3 3 3 4 4 5 5 6 8 11 11 12 12 7 5 7 7 8 8 9 9 10
Wind_Direction
293 283 278 274 269 265 263 264 264 265 263 260 257 253 249 245 240 237 237 234 234 235 231 230 231 225 225 221 219 219 222 222 246 244 208 206 204 220 232 224 221 230 243
295 293 287 284 283 278 272 270 269 268 266 263 262 259 256 252 245 240 241 237 235 236 233 231 232 225 225 221 219 221 222 220 232 247 226 212 216 218 221 225 231 233 231
301 299 296 293 288 282 279 278 276 273 272 269 265 263 261 257 252 246 244 242 238 236 233 230 230 224 226 221 219 221 221 223 225 237 239 222 222 217 218 231 235 236 238
302 300 295 292 287 284 283 282 280 277 275 273 268 265 264 262 257 252 248 246 243 240 235 232 229 223 224 221 221 221 220 221 222 229 236 228 224 210 210 229 240 232 239
301 297 293 292 289 286 285 283 280 277 276 273 272 270 267 264 260 256 250 247 246 244 239 234 230 228 227 226 224 219 216 220 221 226 232 229 225 213 217 216 234 239 239
298 295 295 295 293 290 288 285 282 279 277 276 273 273 271 269 275 277 272 252 242 241 241 236 233 237 238 238 236 230 218 216 218 222 225 227 225 220 217 217 226 235 246
297 296 296 295 293 291 289 287 285 283 280 279 276 273 271 271 279 283 280 272 248 238 235 233 232 232 235 233 240 241 237 229 222 216 224 225 222 216 213 221 226 229 238
299 298 297 296 295 293 288 286 285 282 280 280 279 277 276 277 284 287 285 276 257 242 234 228 228 228 225 225 224 229 233 236 233 227 222 223 222 215 212 220 227 235 243
302 300 299 298 297 296 293 290 288 286 284 280 280 279 277 280 286 289 288 271 258 248 236 228 227 225 231 234 228 225 229 233 241 241 236 229 227 227 220 218 221 230 243
303 301 299 297 296 295 293 292 290 286 285 285 283 278 275 277 284 289 288 272 260 254 241 232 238 234 235 238 230 220 227 226 221 234 244 248 240 237 238 227 215 227 240
301 300 299 297 294 293 293 292 291 290 288 286 284 280 275 275 284 288 288 278 255 253 247 235 234 244 242 240 236 224 229 223 211 218 224 230 232 230 229 224 212 216 231
301 300 300 298 296 297 294 295 292 290 291 289 287 285 276 275 281 285 286 283 277 256 248 237 233 243 246 245 242 234 234 233 215 212 220 223 223 224 222 218 216 217 224
303 301 300 299 296 293 294 296 297 293 291 291 289 288 286 273 275 285 288 288 283 272 248 246 244 245 245 247 247 242 236 227 215 213 216 219 216 214 206 210 220 225 231
303 303 301 301 300 297 293 292 292 293 292 291 290 289 288 282 273 270 268 276 277 276 271 261 258 251 240 235 242 246 230 219 215 216 215 213 202 201 209 211 219 220 236
303 302 302 300 300 301 296 292 292 284 285 292 290 288 291 292 285 286 281 261 248 245 245 233 232 232 226 218 218 221 219 220 225 209 207 205 205 210 215 206 210 215 232
306 306 304 302 301 300 301 301 294 293 300 301 298 294 289 288 295 295 294 289 283 271 257 231 231 228 224 220 217 215 213 214 214 211 210 210 210 212 216 212 213 221 237
302 304 303 301 302 303 303 304 306 306 303 303 302 300 298 299 300 299 296 291 286 277 257 232 228 224 221 217 216 215 215 212 206 210 215 212 210 212 216 221 223 229 238
303 303 304 301 301 300 300 300 301 304 307 305 304 306 306 306 305 304 300 299 285 269 244 234 231 226 220 218 218 218 217 210 207 212 214 212 209 213 221 226 227 231 241
304 302 302 301 300 299 299 299 298 297 297 300 301 304 308 309 308 306 302 282 268 258 245 237 232 228 223 220 218 216 213 213 210 209 213 213 211 214 225 229 232 243 247
302 305 310 307 304 303 302 300 299 299 298 299 301 302 305 304 297 298 292 272 260 254 244 239 234 229 224 219 216 214 214 215 212 213 217 217 215 218 227 231 234 240 243
302 303 308 308 301 300 300 299 299 299 300 300 298 299 305 301 294 291 286 275 262 254 245 242 240 235 226 216 213 214 216 219 217 216 218 218 217 223 227 232 236 240 245
301 300 300 301 300 301 302 299 299 300 300 299 300 302 308 304 292 290 285 278 267 257 247 244 244 236 224 217 215 216 220 223 223 220 220 221 222 226 229 234 238 241 245
299 300 302 301 300 304 306 301 300 301 300 299 300 301 301 298 292 289 285 278 272 267 258 251 251 246 237 228 222 219 223 227 224 217 219 224 226 228 230 235 240 244 247
303 303 304 304 303 302 301 302 303 303 303 303 301 301 301 299 295 291 288 282 277 273 267 263 254 249 245 245 240 234 233 233 225 222 222 226 230 233 234 239 242 244 248
306 304 303 303 303 303 304 305 305 305 306 306 305 304 303 300 295 295 293 288 283 280 278 274 265 254 247 248 251 251 249 250 251 244 230 228 232 233 238 242 244 248 250
307 305 304 303 303 304 304 304 306 308 307 307 305 304 303 301 297 296 296 293 291 290 287 281 270 266 263 260 257 259 263 263 263 260 250 237 237 241 242 246 248 250 252